Regional Weather Roundup
Issued by NWS

Home | Current Version | Previous Version | Text Only | Print | Product List | Glossary Off
Versions: 1 2 3 4 5 6 7 8 9 10 11 12 13 14 15 16 17 18 19 20 21 22 23 24 25 26 27 28 29 30 31 32 33 34 35 36 37 38 39 40 41 42 43 44 45 46 47 48 49

000
ASUS45 KCYS 291110
RWRWY

WYOMING REGIONAL WEATHER ROUNDUP
NATIONAL WEATHER SERVICE CHEYENNE WY
400 AM MST THU JAN 29 2015

NOTE:  "FAIR" INDICATES FEW OR NO CLOUDS BELOW 12,000 FEET
WITH NO SIGNIFICANT WEATHER AND/OR OBSTRUCTIONS TO VISIBILITY.

WYZ001-291200-
YELLOWSTONE NATIONAL PARK

CITY           SKY/WX    TMP DP  RH WIND       PRES   REMARKS
LK YELLOWSTONE   N/A     18  16  92 CALM      30.43R
W YELLOWSTONE  NOT AVBL

$$
WYZ002>013-054>058-071-098>099-291200-
NORTHERN WYOMING

CITY           SKY/WX    TMP DP  RH WIND       PRES   REMARKS
JACKSON        CLOUDY    16  16 100 N9        30.43R WCI   4
CODY           FAIR      30  27  86 SW8       30.40S WCI  23
GREYBULL       CLOUDY    31  31 100 S5        30.43R FOG     WCI  26
WORLAND        MOCLDY    30  26  85 SE7       30.42S WCI  23
SHERIDAN       FAIR      24  20  84 SW6       30.42F WCI  17
BUFFALO        FAIR      25  19  78 W3        30.42S
GILLETTE       FAIR      25  20  81 NW7       30.42S WCI  17
HULETT           N/A    N/A N/A N/A MISG        N/A
NEWCASTLE      FAIR      27  23  86 N9        30.41S WCI  17

$$
WYZ014>020-022>026-101>103-291200-
CENTRAL WYOMING

CITY           SKY/WX    TMP DP  RH WIND       PRES   REMARKS
BIG PINEY      FAIR      17  13  84 CALM      30.41R
PINEDALE       CLOUDY    18  14  86 NW6       30.41S WCI   9
DUBOIS         FAIR      19  16  86 NW9       30.40S WCI   9
LANDER         CLOUDY    34  29  82 CALM      30.39S
RIVERTON       CLOUDY    33  27  78 CALM      30.41S
CASPER         CLOUDY    31  26  82 N5        30.43R WCI  26
DOUGLAS        CLOUDY    32  22  66 NW3       30.44S

$$
WYZ021-027>030-104>119-291200-
SOUTHERN WYOMING

CITY           SKY/WX    TMP DP  RH WIND       PRES   REMARKS
EVANSTON       CLOUDY    31  28  89 E6        30.40S WCI  25
KEMMERER       FAIR      23  21  93 N8        30.41S WCI  14
FORT BRIDGER   FAIR      30  30 100 W6        30.43S WCI  24
ROCK SPRINGS   CLOUDY    32  28  85 CALM      30.41R
DIXON          CLOUDY    33  32  96 CALM      30.41R
RAWLINS        CLOUDY    31  28  89 NE3       30.41R
SARATOGA       CLOUDY    32  30  93 W6        30.40R WCI  26
LARAMIE        CLOUDY    26  24  92 S3        30.39R
CHEYENNE       CLOUDY    32  24  72 N9        30.39S WCI  24
TORRINGTON     MOCLDY    32  25  75 W7        30.41R WCI  26
PINE BLUFFS    CLOUDY    34  28  80 N10       30.40R WCI  26

$$



USA.gov is the U.S. government's official web portal to all federal, state and local government web resources and services.